Location: Killam
(52.7910°N, 111.8608°W)
Time: 01:10:54
(UTC+00:00)

A-11 Canister half - Pass Details

Date: 17 February 2026
Orbit: 1525 x 1683 km, 47.3° (Epoch: 9 March)

Event Time Altitude Azimuth Distance (km) Brightness Sun altitude
Rises 05:48:57 0° 283° (WNW) 4,678 12.1 -43.4°
Reaches altitude 10° 05:52:13 10° 276° (W) 3,696 11.3 -43.7°
Enters shadow 05:56:41 28° 255° (WSW) 2,575 10.2 -44.1°
Maximum altitude 06:00:32 39° 212° (SSW) 2,173 - -44.4°
Drops below altitude 10° 06:08:59 10° 149° (SSE) 3,749 - -45.2°
Sets 06:12:20 0° 142° (SE) 4,752 - -45.4°
